Weather History for Burlington, NC

Change the Weather History Date:

Friday, January 24, 2014

  Actual Average Record
Temperature  
Mean Temperature 18 °F -  
Max Temperature 25 °F 49 °F 25 °F (2014)
Min Temperature 10 °F 28 °F 10 °F (2014)
Degree Days  
Heating Degree Days 48    
Moisture  
Dew Point -7 °F    
Average Humidity 35    
Maximum Humidity 48    
Minimum Humidity 21    
Precipitation  
Precipitation 0.00 in - - ()
Sea Level Pressure  
Sea Level Pressure 30.47 in    
Wind  
Wind Speed 8 mph (WNW)    
Max Wind Speed 12 mph    
Max Gust Speed 17 mph    
Visibility 10 miles    
Events      
Averages and records for this station are not official NWS values.
T = Trace of Precipitation, MM = Missing Value Source: NWS Daily Summary

Daily Weather History Graph

Daily Weather History Graph

Search for Another Location

Airport:

Trip Planner

Search our weather history database for the weather conditions in past years. The results will help you decide how hot, cold, wet, or windy it might be!

Date:

Astronomy

Jan. 24, 2014 Rise Set
Actual Time 7:24 AM EST 5:36 PM EST
Civil Twilight 6:56 AM EST 6:03 PM EST
Nautical Twilight 6:25 AM EST 6:34 PM EST
Astronomical Twilight 5:55 AM EST 7:05 PM EST
Moon 12:52 AM EST (1/24) 11:52 AM EST (1/24)
Length of Visible Light 11h 07m
Length of Day
10h 12m
Last Quarter, 45% of the Moon is Illuminated
Jan 24
Last Quarter
Jan 30
New
Feb 6
First Quarter
Feb 14
Full
Feb 22
Last Quarter

Hourly Weather History & Observations

Time (EST) Temp. Windchill Dew Point Humidity Pressure Visibility Wind Dir Wind Speed Gust Speed Precip Events Conditions
12:54 AM 17.1 °F 5.8 °F -4.0 °F 39% 30.46 in 10.0 mi NNW 9.2 mph - N/A   Clear
1:54 AM 16.0 °F 3.6 °F -4.0 °F 41% 30.49 in 10.0 mi NW 10.4 mph 17.3 mph N/A   Clear
2:54 AM 15.1 °F 1.8 °F -5.1 °F 41% 30.51 in 10.0 mi NW 11.5 mph - N/A   Clear
3:54 AM 14.0 °F 0.5 °F -5.1 °F 43% 30.54 in 10.0 mi NW 11.5 mph - N/A   Clear
4:54 AM 12.0 °F -1.3 °F -7.1 °F 42% 30.55 in 10.0 mi NW 10.4 mph - N/A   Clear
5:54 AM 10.9 °F 0.2 °F -7.1 °F 44% 30.58 in 10.0 mi NNW 6.9 mph - N/A   Clear
6:54 AM 10.0 °F 1.8 °F -6.0 °F 48% 30.61 in 10.0 mi NNW 4.6 mph - N/A   Clear
7:54 AM 10.0 °F -1.9 °F -6.0 °F 48% 30.61 in 10.0 mi WNW 8.1 mph - N/A   Clear
8:54 AM 12.9 °F -0.9 °F -6.0 °F 43% 30.61 in 10.0 mi NW 11.5 mph - N/A   Clear
9:54 AM 15.1 °F 1.8 °F -6.0 °F 39% 30.60 in 10.0 mi North 11.5 mph - N/A   Clear
10:54 AM 18.0 °F 8.7 °F -7.1 °F 33% 30.59 in 10.0 mi North 6.9 mph - N/A   Clear
11:54 AM 21.9 °F 12.5 °F -6.0 °F 29% 30.56 in 10.0 mi NNW 8.1 mph - N/A   Clear
12:54 PM 21.9 °F 17.2 °F -9.0 °F 25% 30.51 in 10.0 mi Variable 3.5 mph - N/A   Clear
1:54 PM 24.1 °F 15.2 °F -9.0 °F 23% 30.48 in 10.0 mi West 8.1 mph - N/A   Clear
2:54 PM 24.1 °F 16.0 °F -9.9 °F 22% 30.47 in 10.0 mi SSW 6.9 mph - N/A   Clear
3:54 PM 25.0 °F - -9.9 °F 21% 30.42 in 10.0 mi Calm Calm - N/A   Clear
4:54 PM 24.1 °F 16.0 °F -9.9 °F 22% 30.40 in 10.0 mi SSW 6.9 mph - N/A   Clear
5:54 PM 23.0 °F 18.4 °F -9.0 °F 24% 30.39 in 10.0 mi SSW 3.5 mph - N/A   Clear
6:54 PM 21.0 °F 16.2 °F -8.0 °F 28% 30.38 in 10.0 mi SW 3.5 mph - N/A   Clear
7:54 PM 19.0 °F - -6.0 °F 33% 30.35 in 10.0 mi Calm Calm - N/A   Clear
8:54 PM 18.0 °F 11.1 °F -5.1 °F 36% 30.31 in 10.0 mi South 4.6 mph - N/A   Clear
9:54 PM 17.1 °F 10.0 °F -5.1 °F 37% 30.30 in 10.0 mi South 4.6 mph - N/A   Clear
10:54 PM 18.0 °F 11.1 °F -5.1 °F 36% 30.27 in 10.0 mi South 4.6 mph - N/A   Clear
11:54 PM 19.0 °F 9.0 °F -6.0 °F 33% 30.24 in 10.0 mi SSW 8.1 mph - N/A   Clear